[[{"header":{"parameterUnit":"m.s-1","parameterCategory":1,"la1":30.2991,"la2":30.254,"lo1":-89.0895,"lo2":-89.0444,"dy":0.0017,"dx":0.0017,"nx":28,"ny":28,"refTime":"2025-04-19T21:00:00:Z","depth":0,"parameterNumber":2,"parameterNumberName":"U-component_of_WINDS"},"data":[0,0,0,0,0,0,0,0,0,0,0,0,0,0,0,0,0,0,0,0,0,0,0,0,0,0,0,0,0,0,0,0,0,0,0,0,0,0,0,0,0,0,0,0,0,0,0,0,0,0,0,0,0,0,0,0,0,0,-4.1613,-4.1613,0,-4.1635,-4.1635,-4.1635,-4.1592,-4.159,-4.1589,-4.1587,-4.1611,-4.1613,-4.1615,0,0,0,0,0,0,0,0,0,0,0,0,0,-4.1537,-4.1538,-4.1613,-4.1613,-4.1613,-4.1635,-4.1635,-4.1635,-4.1592,-4.159,-4.1588,-4.1587,-4.161,-4.1613,-4.1615,0,0,0,0,0,0,0,0,0,0,0,0,0,-4.1565,-4.1539,-4.1613,-4.1594,-4.1593,-4.1635,-4.1635,-4.1635,-4.1592,-4.159,-4.1588,-4.1586,-4.1609,-4.1612,-4.1615,-4.1676,0,0,-4.1624,-4.1625,0,0,0,0,0,0,0,0,-4.1564,-4.1568,-4.1597,-4.1596,-4.1594,-4.1608,-4.1617,-4.1649,-4.1593,-4.1593,-4.1587,-4.1585,-4.1612,-4.1614,-4.1623,-4.1677,-4.1678,-4.1624,-4.1626,-4.1627,-4.1628,0,0,0,0,0,0,0,-4.1562,-4.1567,-4.1621,-4.1597,-4.1596,-4.1586,-4.1588,-4.1623,-4.1614,-4.1592,-4.1589,-4.1592,-4.1611,-4.162,-4.1623,-4.1679,-4.1624,-4.1627,-4.1629,-4.163,-4.1785,-4.1787,0,0,0,0,0,0,-4.1562,-4.1566,-4.1621,-4.1622,-4.1573,-4.1589,-4.1591,-4.1606,-4.1613,-4.1613,-4.1594,-4.159,-4.1617,-4.162,-4.1624,-4.1696,-4.1627,-4.163,-4.1632,-4.1783,-4.1786,-4.1788,0,0,0,0,0,0,-4.156,-4.1567,-4.162,-4.1593,-4.1599,-4.1593,-4.161,-4.1607,-4.1617,-4.1615,-4.1613,-4.1606,-4.1615,-4.162,-4.1664,-4.1696,-4.1631,-4.1634,-4.178,-4.1784,-4.1787,-4.1839,0,0,0,0,0,0,-4.1558,-4.1567,-4.1589,-4.1594,-4.1601,-4.1658,-4.1612,-4.1609,-4.1622,-4.1617,-4.1625,-4.1624,-4.1614,-4.166,-4.1667,-4.1699,-4.1636,-4.1777,-4.1782,-4.1786,-4.1835,-4.1844,-4.1853,0,0,0,0,0,-4.1556,-4.1603,-4.159,-4.1597,-4.1628,-4.166,-4.1664,-4.165,-4.1625,-4.1647,-4.1647,-4.1624,-4.1692,-4.1664,-4.1672,-4.1705,-4.1775,-4.178,-4.1785,-4.1831,-4.1842,-4.1852,0,0,0,0,0,0,-4.1601,-4.1603,-4.1589,-4.1639,-4.165,-4.1653,-4.168,-4.1663,-4.1682,-4.1676,-4.166,-4.1662,-4.1709,-4.1712,-4.1681,-4.1766,-4.1729,-4.1736,-4.1761,-4.1772,-4.1781,-4.1778,-4.1639,0,0,0,0,0,-4.1618,-4.1643,-4.1643,-4.1687,-4.1694,-4.1687,-4.17,-4.1689,-4.17,-4.1704,-4.1706,-4.1718,-4.1742,-4.1758,-4.178,-4.1836,-4.1838,-4.1864,-4.1873,-4.188,-4.1885,-4.1916,-4.1927,-4.1806,-4.1806,-4.1806,0,0,-4.1651,-4.1655,-4.1671,-4.1697,-4.1704,-4.1731,-4.169,-4.1721,-4.1741,-4.1709,-4.1749,-4.1752,-4.1764,-4.1815,-4.1837,-4.1819,-4.192,-4.1887,-4.1892,-4.1894,-4.1923,-4.1934,-4.1944,-4.1809,-4.1809,-4.1808,0,0,-4.1724,-4.173,-4.1767,-4.1776,-4.1787,-4.1783,-4.1792,-4.1798,-4.1799,-4.184,-4.1816,-4.1841,-4.1883,-4.1893,-4.1903,-4.1984,-4.1964,-4.1992,-4.2038,-4.2068,-4.2077,-4.2086,-4.2114,-4.2124,-4.1998,-4.1999,-4.1999,0,-4.1763,-4.1802,-4.1789,-4.1821,-4.1833,-4.1806,-4.1845,-4.1854,-4.1872,-4.1882,-4.1861,-4.1914,-4.192,-4.1973,-4.1993,-4.2003,-4.2013,-4.1989,-4.2077,-4.2085,-4.2093,-4.212,-4.213,-4.2002,-4.2001,-4.2001,-4.2001,0,-4.185,-4.1878,-4.1907,-4.1925,-4.1942,-4.1977,-4.1969,-4.1988,-4.1977,-4.1975,-4.2018,-4.2025,-4.2049,-4.2061,-4.205,-4.2113,-4.2101,-4.208,-4.2042,-4.2108,-4.2133,-4.2143,-4.2006,-4.2005,-4.2004,-4.2003,0,0,-4.1949,-4.1962,-4.1972,-4.1981,-4.1993,-4.2015,-4.205,-4.2073,-4.2089,-4.2104,-4.2133,-4.217,-4.2151,-4.2163,-4.2154,-4.2181,-4.2244,-4.2156,-4.2156,-4.2171,-4.2313,-4.2328,-4.234,-4.2233,-4.2235,-4.2236,-4.2312,0,-4.2021,-4.208,-4.207,-4.2128,-4.2154,-4.2131,-4.2161,-4.2173,-4.2173,-4.2196,-4.2197,-4.2224,-4.2196,-4.2204,-4.223,-4.2231,-4.2272,-4.2226,-4.2259,-4.226,-4.2254,-4.2353,-4.2368,-4.2439,-4.2322,-4.2323,-4.2324,0,-4.2111,-4.2129,-4.219,-4.2199,-4.221,-4.2237,-4.2258,-4.2281,-4.2294,-4.2293,-4.2308,-4.2295,-4.2331,-4.2296,-4.2346,-4.2315,-4.2329,-4.2332,-4.2334,-4.2335,-4.2294,-4.2354,-4.2461,-4.2471,-4.234,-4.2338,-4.2337,0,-4.2176,-4.2216,-4.2257,-4.2265,-4.2278,-4.2298,-4.2304,-4.2316,-4.2331,-4.235,-4.236,-4.2384,-4.2396,-4.2415,-4.2409,-4.2384,-4.2461,-4.2425,-4.2461,-4.2461,-4.2475,-4.2474,-4.2584,-4.2488,-4.2488,-4.2488,-4.2488,0,-4.2255,-4.2293,-4.2286,-4.2311,-4.2353,-4.2343,-4.2385,-4.2389,-4.24,-4.2426,-4.2409,-4.2434,-4.2426,-4.2452,-4.2448,-4.249,-4.2496,-4.2496,-4.2494,-4.2496,-4.2496,-4.2503,-4.2497,-4.2491,-4.249,-4.249,-4.2489,0,-4.2333,-4.233,-4.2373,-4.2383,-4.2386,-4.2416,-4.2424,-4.2449,-4.2449,-4.2483,-4.249,-4.2491,-4.252,-4.2517,-4.255,-4.2547,-4.2599,-4.2593,-4.2594,-4.2592,-4.2627,-4.2623,-4.2743,-4.2758,-4.2655,-4.2656,-4.2657,0,-4.2383,-4.2411,-4.2424,-4.244,-4.2447,-4.2474,-4.2489,-4.2482,-4.2499,-4.2518,-4.254,-4.2568,-4.2589,-4.2638,-4.2641,-4.2667,-4.266,-4.27,-4.2663,-4.2665,-4.2658,-4.2656,-4.2659,-4.2706,-4.2708,-4.2709,-4.2709,0,-4.2471,-4.2469,-4.2491,-4.2514,-4.2533,-4.2551,-4.2567,-4.2581,-4.2576,-4.2596,-4.2626,-4.2643,-4.2677,-4.2704,-4.2729,-4.2737,-4.2723,-4.2722,-4.2731,-4.2732,-4.2731,-4.2731,-4.2612,-4.2718,-4.2717,-4.2717,-4.2716,-4.2716,-4.2535,-4.2559,-4.2572,-4.2598,-4.261,-4.2626,-4.2649,-4.2653,-4.2677,-4.2704,-4.2699,-4.2732,-4.2748,-4.2779,-4.279,-4.2817,-4.2802,-4.2816,-4.2819,-4.2822,-4.2825,-4.2729,-4.2822,-4.2821,-4.2821,-4.2821,-4.2821,0,-4.2621,-4.2629,-4.2653,-4.2676,-4.2697,-4.2683,-4.2701,-4.2719,-4.2749,-4.2764,-4.2786,-4.2821,-4.2849,-4.2856,-4.2883,-4.2903,-4.2897,-4.291,-4.2907,-4.2909,-4.2837,-4.2826,-4.2914,-4.2914,-4.2914,-4.2914,-4.2914,-4.2914,-4.2668,-4.2708,-4.2708,-4.2754,-4.2762,-4.2794,-4.2805,-4.2821,-4.2833,-4.2872,-4.2895,-4.29,-4.2913,-4.2941,-4.2966,-4.2968,-4.2978,-4.2993,-4.2992,-4.2924,-4.2914,-4.2905,-4.2894,-4.2996,-4.2996,-4.3062,-4.3062,-4.3063]},{"header":{"parameterUnit":"m.s-1","parameterCategory":1,"la1":30.2991,"la2":30.254,"lo1":-89.0895,"lo2":-89.0444,"dy":0.0017,"dx":0.0017,"nx":28,"ny":28,"refTime":"2025-04-19T21:00:00:Z","depth":0,"parameterNumber":3,"parameterNumberName":"V-component_of_WINDS"},"data":[0,0,0,0,0,0,0,0,0,0,0,0,0,0,0,0,0,0,0,0,0,0,0,0,0,0,0,0,0,0,0,0,0,0,0,0,0,0,0,0,0,0,0,0,0,0,0,0,0,0,0,0,0,0,0,0,0,0,3.8974,3.8975,0,3.9026,3.9027,3.9027,3.9089,3.909,3.9091,3.9092,3.9141,3.9142,3.9142,0,0,0,0,0,0,0,0,0,0,0,0,0,3.8924,3.8925,3.8974,3.8975,3.8975,3.9026,3.9027,3.9028,3.9089,3.909,3.9091,3.9092,3.9141,3.9142,3.9142,0,0,0,0,0,0,0,0,0,0,0,0,0,3.8958,3.8925,3.8974,3.9012,3.9016,3.9026,3.9027,3.9028,3.9089,3.909,3.9091,3.9093,3.9141,3.9142,3.9142,3.9118,0,0,3.9144,3.9144,0,0,0,0,0,0,0,0,3.8956,3.8959,3.9006,3.9009,3.9014,3.9053,3.9028,3.9058,3.9088,3.9061,3.9092,3.9093,3.911,3.9114,3.912,3.912,3.9122,3.9144,3.9145,3.9145,3.9145,0,0,0,0,0,0,0,3.8953,3.8958,3.8995,3.9006,3.9011,3.9026,3.9032,3.9034,3.9077,3.9063,3.9068,3.9074,3.9113,3.9119,3.9122,3.9123,3.9144,3.9145,3.9145,3.9145,3.9107,3.9105,0,0,0,0,0,0,3.8946,3.8955,3.8993,3.8996,3.8988,3.9025,3.9032,3.9039,3.9077,3.9084,3.9072,3.9076,3.9118,3.9121,3.9124,3.9099,3.9145,3.9146,3.9146,3.9108,3.9106,3.9105,0,0,0,0,0,0,3.8944,3.8949,3.8991,3.8977,3.8984,3.9025,3.9031,3.9039,3.9046,3.9084,3.9092,3.9071,3.9119,3.9123,3.9119,3.9102,3.9146,3.9146,3.911,3.9108,3.9106,3.9049,0,0,0,0,0,0,3.8943,3.8948,3.894,3.8976,3.8984,3.8986,3.903,3.9039,3.9047,3.9053,3.9085,3.9092,3.912,3.9118,3.912,3.9103,3.9147,3.9112,3.9109,3.9106,3.9052,3.9045,3.9039,0,0,0,0,0,3.8941,3.892,3.8939,3.8943,3.8975,3.8985,3.899,3.9024,3.9045,3.9037,3.9062,3.9091,3.9103,3.9117,3.912,3.9103,3.9113,3.911,3.9106,3.9056,3.9046,3.9039,0,0,0,0,0,0,3.8878,3.8926,3.8947,3.8938,3.8957,3.8996,3.8987,3.9013,3.9026,3.903,3.9071,3.9078,3.907,3.9086,3.9101,3.9082,3.9112,3.9109,3.9072,3.9064,3.9057,3.9054,3.9147,0,0,0,0,0,3.8864,3.887,3.891,3.8898,3.8907,3.8945,3.8951,3.8976,3.8997,3.9005,3.9029,3.9048,3.9056,3.9061,3.907,3.9054,3.9063,3.9044,3.9037,3.9031,3.9029,3.9023,3.9016,3.9094,3.9094,3.9094,0,0,3.8833,3.886,3.8861,3.8886,3.8904,3.8909,3.8951,3.8954,3.8957,3.9005,3.9005,3.9022,3.9046,3.9037,3.9034,3.905,3.9009,3.9027,3.9022,3.9023,3.9019,3.9012,3.9005,3.9092,3.9093,3.9093,0,0,3.8781,3.8801,3.8795,3.8812,3.884,3.8865,3.8863,3.8898,3.8913,3.8913,3.8949,3.8953,3.8966,3.8982,3.8991,3.8945,3.8972,3.8946,3.8911,3.8905,3.8899,3.8893,3.8878,3.8872,3.8944,3.8943,3.8943,0,3.874,3.8749,3.8787,3.8789,3.8799,3.8843,3.8837,3.8851,3.888,3.8885,3.8903,3.8922,3.894,3.8936,3.8925,3.893,3.893,3.8944,3.8897,3.8892,3.8887,3.8874,3.8868,3.894,3.8941,3.8941,3.8941,0,3.8698,3.8703,3.8695,3.8723,3.8732,3.8729,3.8766,3.877,3.8794,3.8818,3.8817,3.8841,3.8857,3.8858,3.888,3.8857,3.8866,3.8889,3.8921,3.8876,3.8864,3.8859,3.8936,3.8937,3.8938,3.8939,0,0,3.8608,3.8659,3.8655,3.8669,3.8703,3.8708,3.8706,3.8723,3.8727,3.8744,3.8745,3.8755,3.8777,3.8788,3.8813,3.8807,3.8771,3.8831,3.8833,3.8821,3.8748,3.8732,3.8725,3.8789,3.8788,3.8787,3.8747,0,3.8564,3.8566,3.8601,3.8593,3.86,3.8642,3.8641,3.8661,3.8683,3.869,3.8713,3.8721,3.8749,3.8756,3.8752,3.8776,3.8757,3.8779,3.8789,3.8789,3.8784,3.8719,3.8701,3.8662,3.8742,3.8741,3.8741,0,3.8512,3.8529,3.8523,3.8558,3.8562,3.856,3.858,3.8586,3.8609,3.8625,3.8638,3.8666,3.8667,3.8695,3.8697,3.8711,3.8717,3.8729,3.8729,3.8732,3.8764,3.8722,3.865,3.8645,3.8733,3.8734,3.8734,0,3.845,3.8471,3.847,3.8481,3.8521,3.8519,3.8536,3.8561,3.8569,3.8585,3.8591,3.8605,3.8614,3.8624,3.8656,3.8673,3.8654,3.8685,3.8668,3.8667,3.8663,3.8664,3.8593,3.8664,3.8664,3.8664,3.8664,0,3.8397,3.8392,3.8443,3.8443,3.8439,3.8477,3.8471,3.8492,3.8514,3.8518,3.8554,3.8556,3.8597,3.8604,3.8628,3.8627,3.8629,3.8642,3.8649,3.864,3.8639,3.8646,3.865,3.8662,3.8663,3.8663,3.8663,0,3.8328,3.8362,3.8365,3.8403,3.8413,3.8408,3.844,3.8441,3.8465,3.8469,3.8473,3.8509,3.852,3.8552,3.8569,3.8585,3.8577,3.8589,3.857,3.8575,3.8557,3.8559,3.849,3.8484,3.8556,3.8555,3.8555,0,3.8294,3.8291,3.833,3.8336,3.8351,3.836,3.837,3.8407,3.8415,3.8442,3.844,3.8453,3.8466,3.848,3.8508,3.8522,3.8535,3.851,3.8538,3.8529,3.8537,3.8538,3.8538,3.8505,3.8504,3.8503,3.8502,0,3.8229,3.8246,3.8259,3.8278,3.8289,3.8305,3.8323,3.8326,3.8368,3.8374,3.8387,3.8397,3.8416,3.8429,3.8447,3.8463,3.849,3.8493,3.8491,3.8483,3.8473,3.848,3.8556,3.8495,3.8496,3.8496,3.8497,3.8497,3.8178,3.8178,3.8206,3.8219,3.8237,3.8254,3.8257,3.8282,3.8293,3.8313,3.8333,3.8343,3.8366,3.8394,3.8408,3.8416,3.843,3.8425,3.8424,3.8423,3.842,3.847,3.8419,3.8419,3.8419,3.8419,3.8419,0,3.8117,3.8137,3.8149,3.8175,3.8185,3.821,3.8231,3.8238,3.8247,3.8267,3.828,3.8294,3.8306,3.8335,3.8351,3.8351,3.8364,3.8354,3.8355,3.8359,3.8405,3.8407,3.8344,3.8344,3.8344,3.8344,3.8344,3.8344,3.8087,3.809,3.811,3.8122,3.8141,3.8153,3.8163,3.8178,3.8195,3.8209,3.8221,3.824,3.8263,3.8281,3.8294,3.8302,3.8306,3.8293,3.8305,3.8348,3.8355,3.8362,3.8364,3.8293,3.8293,3.8258,3.8258,3.8258]}]]